Location: Newark
(34.1333°N, 7.9667°W)
Time: 11:11:17
(UTC+00:00)

FO-29 - Pass Details

Date: 06 June 2023
Orbit: 800 x 1321 km, 98.5° (Epoch: 21 September)

Event Time Altitude Azimuth Distance (km) Brightness Sun altitude
Rises 04:42:39 0° 16° (NNE) 3,400 13.2 -7.5°
Reaches altitude 10° 04:44:57 10° 20° (NNE) 2,505 12.6 -7.1°
Maximum altitude 04:50:27 65° 102° (ESE) 1,012 9.9 -6.2°
Drops below altitude 10° 04:56:37 10° 184° (S) 2,793 11.6 -5.1°
Sets 04:59:17 0° 187° (S) 3,821 12.2 -4.6°
